Погода в Олюденизе

Турция     36°34′33″N   29°09′04″E
темп.,
°C
ветер,
м/с
пор.,
м/с
влажн.,
%
обл.,
%
осадки,
мм/ч
давл.,
гПа
погр.,
м
19 января, вт
вт1900:00+2ссз2294100 0.3 101688
03:00+1ссв228964 0.3 101638
06:000ссв22770 0.0 101630
09:00+1ссв22680 0.0 101750
12:00+6сз22400 0.0 1017502
15:00+7зсз23340 0.0 1015966
18:00+4ссз22460 0.0 101748
21:00+1св23440 0.0 101835
20 января, ср
ср2000:000ссв33430 0.0 102053
03:00−1ссв45430 0.0 102090
06:00−1ссв57410 0.0 1021167
09:000ссв57380 0.0 1023209
12:00+6с56220 0.0 1025635
15:00+9ссз56200 0.0 10241051
18:00+5ссз23350 0.0 102644
21:00+2св22360 0.0 102825
21 января, чт
чт2100:00+1всв22350 0.0 102924
03:00+2в11350 0.0 102824
06:00+2всв11420 0.0 102824
09:00+3в114016 0.0 102924
12:00+10ююз1230100 0.0 1029446
15:00+11зсз124298 0.0 10281068
18:00+8вюв016583 0.0 102932
21:00+5вюв117584 0.0 103034
22 января, пт
пт2200:00+6в127078 0.0 102925
03:00+6вюв118077 0.3 102926
06:00+6всв118591 0.3 102825
09:00+7в118595 0.6 102937
12:00+9юв1177100 0.0 1028203
15:00+11ююз2269100 0.1 1027713
18:00+8ю238491 0.4 102690
21:00+6вюв119194 0.5 102742
23 января, сб
сб2300:00+7в118499 0.2 102743
03:00+6вюв118293 0.3 102633
06:00+5в118427 0.0 102427
09:00+6всв118120 0.1 102527
12:00+11ю23600 0.0 1024897
15:00+12ююз446440 0.1 1022841
18:00+9ююз3585100 0.1 1021196
21:00+7ююв2290100 0.3 102250